Location: Unspecified
(0.0000°N, 0.0000°E)
Time: 23:37:31
(UTC+00:00)

Explorer 11/Cluster Stage 4 - Visible Passes

Search period start: 18 April 2014 00:00
Search period end: 28 April 2014 00:00
Orbit: 468 x 1288 km, 28.8° (Epoch: 16 April)

Date Brightness Start Highest point End Pass type
(mag) Time Alt. Az. Time Alt. Az. Time Alt. Az.
18 Apr 9.2 03:17:10 11° ESE 03:17:10 11° ESE 03:17:20 10° ESE visible
18 Apr 6.0 04:59:38 23° WSW 05:02:39 74° NNW 05:06:41 10° NE visible
18 Apr 9.4 19:37:23 10° WSW 19:42:04 16° SSW 19:46:29 11° SSE visible
19 Apr 9.3 03:11:47 11° E 03:11:47 11° E 03:12:03 10° E visible
19 Apr 6.4 04:54:15 27° W 04:56:42 53° NNW 05:00:47 10° NE visible
19 Apr 9.5 19:32:36 10° SW 19:36:13 13° SSW 19:39:57 10° S visible
20 Apr 9.3 03:06:22 11° E 03:06:22 11° E 03:06:35 10° E visible
20 Apr 6.9 04:48:50 28° WNW 04:50:44 39° NNW 04:54:47 10° NE visible
20 Apr 9.6 19:28:23 10° SSW 19:30:26 11° SSW 19:32:32 10° S visible
21 Apr 9.4 03:00:53 11° ENE 03:00:53 11° ENE 03:00:59 10° ENE visible
21 Apr 7.4 04:43:21 26° WNW 04:44:44 30° NNW 04:48:41 10° NNE visible
22 Apr 7.8 04:37:48 22° NW 04:38:43 23° NNW 04:42:28 10° NNE visible
23 Apr 8.1 04:32:11 19° NW 04:32:42 19° NNW 04:36:09 10° NNE visible
24 Apr 8.4 04:26:30 15° NW 04:26:42 15° NNW 04:29:40 10° N visible
25 Apr 8.7 04:20:45 12° NNW 04:20:45 12° NNW 04:22:55 10° N visible
